Powrót do katalogu

FENGYUN 1C DEB *

AktywnyPO
NORAD 47025·DEBRIS·🇨🇳 China

Wystrzelony May 10, 1999 z Taiyuan Satellite Launch Center

Loading…

Następne Przeloty (najbliższe 24 godziny)

TLE

ŚwieżeSource: Space-Track

Epoka: Sep 13, 2026, 10:11 UTC

1 47025U 99025FBB 26256.42476943  .00003437  00000-0  90063-3 0  9991
2 47025  99.0197 126.6468 0035634 259.5522 275.8490 14.49621813667170

Śledź FENGYUN 1C DEB * w czasie rzeczywistym z AllMySat

Download on the App Store